KBDRKUUU

Guest
Details From KBDR - IGOR I SIKORSKY MEM
To KUUU - NEWPORT STATE
Flight Number -
Tags decoded
Created
Modified
Stats Distance 90 nm / 166 km
Max Altitude 0 ft / 0 m
Waypoints 3
Social Downloads 0
Likes 0
Share VATSIM

Download

Looking for another format? Having issues loading an existing format? Contact us
Advertisement - Login to hide

Notes

Requested: KBDR GOR MINNK KUUU Unmatched points: GOR

Route

KBDR MINNK KUUU

ID Type Via Altitude Latitude Longitude Leg Dist Tot Dist Heading (true) Name
O KBDR APT - 0 ft / 0 m 41.16435˚ -73.12620˚ - 0 nm - IGOR I SIKORSKY MEM
MINNK FIX - 0 ft / 0 m 41.36130˚ -71.42422˚ 77 nm 77 nm 81° / 82° -
O KUUU APT - 0 ft / 0 m 41.53252˚ -71.28159˚ 12 nm 89 nm 32° / 32° NEWPORT STATE

Altitude Profile

Advertisement - Login to hide

KBDR

Details ICAO KBDR (BDR)
Name IGOR I SIKORSKY MEM
Region United States
Timezone America/New_York (UTC-5.0)
Stats Elevation 9 ft / 3 m (AMSL)
Location 41.164347° -73.126199°
Runways 3
Magnetic Variation 13.437° W

METAR

KBDR 151352Z 36004KT 10SM SCT120 M06/M12 A3012 RMK AO2 SLP199 T10561122

Decode

TAF

TAF AMD KBDR 151249Z 1513/1612 VRB04KT P6SM BKN170 FM151600 VRB05KT P6SM SCT030 BKN050 FM152100 25005KT 2SM -SN SCT015 OVC025 TEMPO 1521/1601 1/2SM SN BKN015 FM160100 29005KT P6SM SCT035 BKN070 FM160400 27008KT P6SM SCT150 FM160900 27012G18KT P6SM FEW070 FEW250

Decode

Departure Runways

ID Width Length Bearing (true) Bearing (mag) Surface Threshold Offset Overrun Length
06 150 ft / 46 m 4,675 ft / 1,425 m 44.90° 58.34° Asphalt 0 ft / 0 m 300 ft / 91 m
11 150 ft / 46 m 4,748 ft / 1,447 m 97.86° 111.30° Asphalt 0 ft / 0 m 300 ft / 91 m
17 150 ft / 46 m 3,392 ft / 1,034 m 162.99° 176.43° Asphalt 0 ft / 0 m 1,200 ft / 366 m
24 150 ft / 46 m 4,675 ft / 1,425 m 224.90° 238.34° Asphalt 319 ft / 97 m 0 ft / 0 m
29 150 ft / 46 m 4,748 ft / 1,447 m 277.87° 291.31° Asphalt 364 ft / 111 m 0 ft / 0 m
35 150 ft / 46 m 3,392 ft / 1,034 m 343.00° 356.44° Asphalt 0 ft / 0 m 300 ft / 91 m

KUUU

Details ICAO KUUU
Name NEWPORT STATE
Region United States
Timezone America/New_York (UTC-5.0)
Stats Elevation 171 ft / 52 m (AMSL)
Location 41.532518° -71.281594°
Runways 2
Magnetic Variation 14.349° W

METAR

KUUU 151353Z AUTO 18005KT 10SM CLR M07/M11 A3011 RMK AO2 SLP196 T10671111

Decode

TAF

Not found

Destination Runways

ID Width Length Bearing (true) Bearing (mag) Surface Threshold Offset Overrun Length
04 75 ft / 23 m 3,001 ft / 915 m 23.75° 38.10° Asphalt 0 ft / 0 m 0 ft / 0 m
16 75 ft / 23 m 2,625 ft / 800 m 143.62° 157.97° Asphalt 0 ft / 0 m 0 ft / 0 m
22 75 ft / 23 m 3,001 ft / 915 m 203.75° 218.10° Asphalt 0 ft / 0 m 0 ft / 0 m
34 75 ft / 23 m 2,625 ft / 800 m 323.62° 337.97° Asphalt 243 ft / 74 m 0 ft / 0 m

Popular Alternatives